Hourly Data Report for November 08, 2014

All times are specified in Local Standard Time (LST). Add 1 hour to adjust for Daylight Saving Time where and when it is observed.

TROUT LAKE
NORTHWEST TERRITORIES

60°26'27.000" N
121°14'20.000" W
498.00 m
220CQHR
71166
WTE

Download Data

Hourly Data (November 2014)
Hourly Data Report for November 8, 2014
Temp Definition
°C
Dew Point Temp Definition
°C
Rel Hum Definition
%
Wind Dir Definition
10's deg

Wind Spd Definition
km/h
Visibility Definition
km
Stn Press Definition
kPa
Hmdx Definition


Wind Chill Definition


Weather Definition


TIME
00:00 -14.0 -16.0 84 13 8   96.64   -19 LegendNANA
01:00 -14.1 -16.3 83 15 7   96.60   -19 LegendNANA
02:00 -14.1 -16.6 81 14 6   96.60   -18 LegendNANA
03:00 -14.1 -16.9 79 12 5   96.54   -18 LegendNANA
04:00 -14.3 -17.1 79 15 4   96.49   -17 LegendNANA
05:00 -14.4 -16.7 83 14 6   96.46   -19 LegendNANA
06:00 -14.3 -16.4 84 12 8   96.44   -20 LegendNANA
07:00 -14.3 -16.3 85 12 8   96.43   -20 LegendNANA
08:00 -14.2 -15.9 87 12 7   96.40   -19 LegendNANA
09:00 -13.9 -15.7 87 12 10   96.37   -20 LegendNANA
10:00 -13.6 -15.5 85 14 12   96.38   -20 LegendNANA
11:00 -12.9 -15.0 84 13 15   96.37   -20 LegendNANA
12:00 -12.0 -14.7 80 14 15   96.34   -19 LegendNANA
13:00 -11.6 -14.3 80 13 12   96.29   -18 LegendNANA
14:00 -11.5 -14.1 81 15 8   96.26   -16 LegendNANA
15:00 -11.6 -14.0 83 13 10   96.23   -17 LegendNANA
16:00 -11.7 -14.0 83 13 11   96.21   -18 LegendNANA
17:00 -11.9 -13.8 86 12 9   96.17   -17 LegendNANA
18:00 -12.1 -13.8 87 13 7   96.18   -16 LegendNANA
19:00 -12.4 -13.9 89 14 5   96.16   -16 LegendNANA
20:00 -13.3 -14.7 90 12 3   96.13   -15 LegendNANA
21:00 -16.1 -17.8 87 12 2   96.10   -18 LegendNANA
22:00 -14.9 -16.0 92 12 4   96.09   -18 LegendNANA
23:00 -14.1 -15.4 90 10 6   96.08   -18 LegendNANA

Notes on Data Quality.

Legend

  • E = Estimated
  • M = Missing
  • NA = Not Available
  • ‡ = Partner data that is not subject to review by the National Climate Archives
Date modified: